India Forums Logo

Hum ne li hai... Shapath

India Forums > Forum Index > Hum ne li hai... Shapath
Hum ne li hai... Shapath is a story of tough cops against the flawed system with thrilling and contemporary police cases weaved in.
<< | 1 | 2 | 3 | 4 | 5 | 6 | 7 | 8 | 9 | 10 | 11 | 12 | 13 | 14 | 15 | 16 | 17 | >>
TIDTopic SubjectStart DateLast Entry
3168131RIP,WELCOME AND MISSING8/28/2012 5:45:49 AM8/29/2012 5:36:08 AM
3168567HNLHS Media Gallery8/28/2012 9:55:51 AM2/6/2013 10:46:29 AM
3169792Love story8/29/2012 5:46:53 AM8/30/2012 2:23:11 PM
3173230ACP Pratap's wife & GauShi's house owner8/31/2012 4:06:55 AM9/1/2012 6:59:07 AM
3173278A Message For The HNLHS Team8/31/2012 4:37:46 AM9/3/2012 5:54:12 PM
3174865TRPs of Hum Ne Li Hai... Shapath9/1/2012 12:25:52 AM9/1/2012 2:05:05 PM
3175488oh! Spare me!9/1/2012 11:19:56 AM9/2/2012 1:51:54 PM
3175586Happy Birthday Shreya (Khotta_sikka_sri)9/1/2012 12:57:27 PM10/6/2012 10:33:42 AM
31756391/9/2012 WU: The Child Killer9/1/2012 2:08:06 PM9/1/2012 8:20:38 PM
3175800Happy Birth Day Shreya9/1/2012 8:31:14 PM9/2/2012 1:28:18 PM
3175934Today is Acp karanveer aka Narendra Jha b'day9/2/2012 12:31:47 AM9/8/2012 1:54:27 AM
3176303The Forensic Doctor?9/2/2012 8:04:51 AM9/7/2012 9:26:39 PM
3176504Hasan is back!!!!9/2/2012 11:40:26 AM9/3/2012 4:57:24 AM
3178097AUGUST 2012 A MONTH OF REPLACEMENT9/3/2012 12:19:28 PM9/5/2012 12:17:45 PM
31782282/9/2012 WU: Slow Poisoning9/3/2012 1:38:04 PM9/3/2012 6:07:23 PM
3180410TB:Showerless Aamir Dalvi9/5/2012 1:31:16 AM9/15/2012 11:10:06 AM
3180569A Special Video Dedicated To HNLHS Team.9/5/2012 3:51:52 AM9/13/2012 6:36:54 AM
3181310Madhura Naik and Karan Kundra9/5/2012 10:26:49 AM9/7/2012 7:40:39 AM
3181356Some more photos of Piyush and Akangsha wedding9/5/2012 10:41:47 AM9/12/2012 12:25:53 AM
3181842I like...Shapath!9/5/2012 3:22:32 PM9/19/2012 5:16:48 AM
3182633hum ne li hai ...shapath9/6/2012 7:49:15 AM9/6/2012 12:06:26 PM
3186586Inspector Abhigyan will be back soon...:)9/8/2012 11:46:23 PM9/15/2012 10:19:06 AM
3186689Divyaalakshmi is happy to be back on TV after a hi9/9/2012 2:12:23 AM9/9/2012 1:40:48 PM
3187252||HNLHS Final Banner Contest Voting|| (Closed)9/9/2012 1:34:07 PM9/24/2012 7:29:11 AM
3187307GOTW: Add 100 (Closed)9/9/2012 3:20:58 PM9/24/2012 7:33:13 AM
3187790Amrita Prakash in Hum Ne Li Hai... Shapath9/10/2012 4:49:11 AM9/10/2012 4:48:01 PM
3191607Dharmesh Vyas to enter Hum Ne Li Hai...Shapath9/12/2012 5:16:07 AM9/13/2012 1:40:20 PM
3193642Humara Abhigyan...9/13/2012 9:48:25 AM9/21/2012 5:23:13 PM
3194823Significance of Usernames9/14/2012 4:54:08 AM9/15/2012 2:46:08 PM
3194930Fenil Umrigar shoots an episodic for Life OK's Sha9/14/2012 6:38:07 AM9/23/2012 12:45:36 PM
319688915 sept WU:Abhigyan back,Kavi rocks9/15/2012 11:07:17 AM9/17/2012 10:14:04 AM
3197049WELCOME BACK INSPECTOR ABHIGYAN9/15/2012 1:32:56 PM9/16/2012 3:32:06 PM
3197290Aamir Dalvi as Inspector Kavi9/15/2012 11:29:47 PM9/21/2012 5:24:40 PM
3197578|~The Veteran and Charming Piyush Sahdev AT#3~|9/16/2012 5:24:57 AM10/17/2012 1:51:26 PM
3198324HAPPY BIRTHDAY MANSI.9/16/2012 8:39:46 PM10/12/2012 12:13:44 AM
319832816/09/2012 WU: Forced Suicide Bombers9/16/2012 8:42:53 PM9/19/2012 1:14:00 AM
3198383Wat about Gautam...9/16/2012 10:48:51 PM9/19/2012 1:04:59 AM
3199339Tribute to the friendship of Abhi n Gautam!!!9/17/2012 10:17:31 AM9/20/2012 2:00:41 AM
3201988Don't follow your heart. It will leave you confuse9/19/2012 1:54:30 AM9/22/2012 5:38:39 AM
3201989Madhura Naik says, Indian men are not upto the mar9/19/2012 1:57:08 AM9/19/2012 10:56:54 AM
3204012TB: Madhura Naik Interview9/20/2012 8:12:22 AM9/21/2012 5:21:43 PM
3204234Karan Kundra and I are seeing each other: Madhura9/20/2012 9:29:29 AM9/21/2012 9:23:29 AM
3206345New entry in Shapath9/21/2012 10:56:34 AM9/22/2012 6:14:09 AM
3208379Two new entries!9/23/2012 2:08:10 AM9/23/2012 1:35:48 PM
3208397Aamir Dalvi aka Kavi's interview9/23/2012 2:24:08 AM9/24/2012 1:05:37 AM
3209146Kavi's Dialogue Corner9/23/2012 8:38:24 PM10/7/2012 12:12:11 PM
3209149Has FW lost it?9/23/2012 8:40:09 PM10/20/2012 1:10:35 AM
320917423/09/2012 WU: The Mailman's Murder9/23/2012 9:40:18 PM9/25/2012 1:00:43 PM
3209771GOTW: Kill and Reason (Closed)9/24/2012 7:34:12 AM9/30/2012 7:21:56 PM
3210223||HNLHS Banner Contest Results||9/24/2012 10:41:05 AM9/28/2012 12:44:39 PM
3211935**Happy Birthday Cool and Handsome HASAN ZAIDI**9/25/2012 10:12:40 AM10/1/2012 6:21:22 AM
3212030Sargun Mehta's Interview9/25/2012 10:37:58 AM9/25/2012 9:56:50 PM
3214080Simran Sachdev in Hum Ne Li Hai... Shapath9/26/2012 11:26:07 AM10/19/2012 8:17:48 PM
3214860Priya Shinde to enter Hum Ne Li Hai... Shapath9/27/2012 2:38:21 AM9/27/2012 6:53:29 PM
3215075Fenil Umigar to be seen in Gumraah9/27/2012 5:09:22 AM9/27/2012 6:52:24 PM
3216960Karan Kundra and Madhura Naik9/28/2012 5:50:38 AM10/5/2012 1:22:30 AM
3218443A rare case solved bu the brave officers9/29/2012 1:18:52 AM9/29/2012 5:58:55 PM
3220309Abhigyan fans are better than Gautam fans9/30/2012 11:26:03 AM9/30/2012 6:41:54 PM
3220540GOTW: Hug and Reason (Closed)9/30/2012 7:21:29 PM10/9/2012 2:43:32 PM
322058130/09/2012 WU: Ganesha Puja Special9/30/2012 9:21:17 PM10/2/2012 12:16:13 AM
3222378Padam Singh to play an important role10/2/2012 2:30:21 AM10/2/2012 1:33:22 PM
3225725Vineet Raina replaces Sarwar Ahuja in Punar Vivah10/4/2012 3:17:17 AM10/4/2012 9:35:17 AM
3226033|~Member's Choice IF Awards: Fall '12 - VOTE NOW~|10/4/2012 6:58:34 AM10/6/2012 1:56:10 PM
3226384Episodic TV shows back in fashion10/4/2012 10:08:26 AM10/4/2012 10:06:20 PM
3227509Three new entries10/5/2012 3:34:59 AM10/6/2012 9:59:16 AM
3228749Goldies Ki Ladai (On break till Oct. 18)10/5/2012 8:42:38 PM10/18/2012 11:16:31 AM
3229757Is Damini in love with Shaurya?10/6/2012 2:02:23 PM10/20/2012 12:07:09 PM
3229771Is the personal aspect back?10/6/2012 2:15:12 PM10/12/2012 1:18:18 AM
3230085Sarwar Ahuja 'calls for a party' after fracturing10/7/2012 1:13:56 AM10/7/2012 9:32:10 AM
3230088How many likes for Shaurya & Damini's Jodi10/7/2012 1:24:40 AM10/16/2012 1:36:41 PM
3230361Resembled with Gautam10/7/2012 6:54:00 AM10/7/2012 3:31:20 PM
3230392Sarwar Ahuja 'calls for a party' after a fracture10/7/2012 7:41:30 AM10/7/2012 9:19:15 AM
32308097/10/2012 WU: The Two Killers10/7/2012 3:56:19 PM10/8/2012 12:23:35 PM
3231103Ur fav COUPLE10/8/2012 2:25:05 AM10/9/2012 1:29:41 AM
3232045||Shapathian of the Week # 1|| Closed10/8/2012 12:49:02 PM10/18/2012 6:03:29 AM
<< | 1 | 2 | 3 | 4 | 5 | 6 | 7 | 8 | 9 | 10 | 11 | 12 | 13 | 14 | 15 | 16 | 17 | >>